YAOGAN 11 DEB

Satellite information

Favourite Embed

Satellite Type and Status

DEBRISIN ORBIT

Key statistics

Satellite YAOGAN 11 DEB at a glance.

Uptime

5562

Days in orbit

Revolutions

≈ 14.4

Per day

Orbit

SSO

Sun Synchronous Orbit

Inclination

97.9

Latest

Satellite identification and parameters

Extended collection of information and parameters for YAOGAN 11 DEB.

Object identification

Identified? True

Debris? True

Object name: YAOGAN 11 DEB

International designator: 2010-047D

Object number (NORAD): 38174

Object ID (CCSDS): 38174

Country: PEOPLES REPUBLIC OF CHINA (PRC)

Current information (Y/N): Y

RCS size: SMALL

Orbital parameters

Period: 99.983 minutes

Inclination: 97.8692 deg

SMA: 7135.836 km

Apoapsis: 889.128 km

Periapsis: 626.274 km

RAAN: 342.2552 deg

Eccentricy: 0.01841791

Argument of periapsis: 80.3915 deg

Mean anomaly: 311.1801 deg

Mean motion: 14.40242039 rev/day

Mean motion (dot): 0.00003824 rev/day2

B* drag term: 0.00099940766 1/REarth

Two-line elements (TLE)

Creation date: Dec. 13, 2025, 4:32 a.m.

Reference frame: TEME

Reference center: EARTH

Epoch: Dec. 12, 2025, 10:46 p.m. UTC

TLE line 0: 0 YAOGAN 11 DEB

TLE line 1: 1 38174U 10047D 25346.94913369 .00003824 00000-0 99941-3 0 9991

TLE line 2: 2 38174 97.8692 342.2552 0184179 80.3915 311.1801 14.40242039788271

Live tracking on map

Real-time ground track for satellite YAOGAN 11 DEB.

In-orbit conjunctions

A list of the most updated potential collisions computed for object YAOGAN 11 DEB.

Target Orbit TCA Probability of collision Miss distance Type
BILSAT 1 SSO 2025-11-09 01:56:49 0.0001494784 556.0 (m) PAYLOAD
SL-3 DEB LEO 2024-11-22 15:21:43 0.0002072994 119.0 (m) DEBRIS
CZ-4 DEB SSO 2024-11-15 03:57:40 0.0001402655 419.0 (m) DEBRIS

Associated space launch

YAOGAN 11 DEB was lifted into orbit during the mission ‘Long March 2D | Yaogan-11, Zheda Pixing 1B & Zheda Pixing 1C’, on board a Long March 2D space rocket.

The launch took place on Sept. 22, 2010, 2:42 a.m. from Launch Area 94 (SLS-2 / 603).

For more information about the launch, click the button.

Launch to space Long March 2D | Yaogan-11, Zheda Pixing 1B & Zheda Pixing 1C
Long March 2D | Yaogan-11, Zheda Pixing 1B & Zheda Pixing 1C

Agency: N/A

Status: Launch Successful

Launch date: Sept. 22, 2010, 2:42 a.m. UTC

Rocket: Long March 2D

Launch pad: Launch Area 94 (SLS-2 / 603)

Location: Jiuquan Satellite Launch Center, People's Republic of China

...

Latest news about this satellite

There are no fresh news available about this satellite. Check back as we update our databases every day.


Newsletter sign-up

Weekly statistics, charts and insights to help you stay on top of the space industry.